Location: San Francisco
(37.7750°N, 122.4180°W)
Time: 01:21:49
(UTC-07:00)

Daily predictions for brighter satellites

Satellite Brightness Start Highest point End
(mag) Time Altitude Azimuth Time Altitude Azimuth Time Altitude Azimuth
Cosmos 1850 Rocket 4.2 00:06:43 67° NNW 00:06:43 67° NNW 00:11:25 10° NNE
NOSS 3-2 (C) 4.2 00:23:14 40° ENE 00:23:14 40° ENE 00:27:55 10° NE
Cosmos 2369 Rocket 4.2 00:18:31 10° WNW 00:21:52 16° W 00:21:52 16° W
Cosmos 1655 Rocket 4.0 00:23:25 72° ENE 00:23:25 72° ENE 00:29:27 10° N
CZ-4C R/B 3.2 00:25:10 36° ENE 00:25:10 36° ENE 00:28:50 10° NE
Atlas Centaur 2 3.9 00:18:44 10° W 00:23:33 34° WSW 00:23:33 34° WSW
Cosmos 2344 4.2 00:37:44 39° ESE 00:37:44 39° ESE 00:44:45 10° NE
Meteor 1-16 Rocket 4.4 00:33:34 10° N 00:38:32 70° N 00:38:32 70° N
H-2A R/B 4.4 00:41:14 10° N 00:42:59 25° N 00:42:59 25° N
Cosmos 2221 4.1 00:42:57 10° NNW 00:45:24 33° NNW 00:45:24 33° NNW
Cosmos 2278 4.5 00:45:13 10° N 00:50:34 43° ENE 00:50:34 43° ENE
Cosmos 2026 Rocket 4.2 00:55:16 59° WNW 00:55:16 59° WNW 01:01:05 10° N
CZ-4B R/B 4.2 00:58:25 19° NNW 00:58:25 19° NNW 00:59:35 10° NNW
NOSS 3-2 (A) 3.6 01:06:35 67° WNW 01:06:45 68° NW 01:13:20 10° NNE
Cosmos 2082 Rocket 3.2 01:10:40 37° ENE 01:10:40 37° ENE 01:14:39 10° NE
Cosmos 1697 Rocket 4.5 01:09:17 10° N 01:13:48 24° ENE 01:15:37 20° E
Cosmos 1763 Rocket 4.4 01:09:54 10° N 01:14:32 44° NE 01:14:32 44° NE
ALOS 2 4.5 01:17:36 24° NW 01:17:36 24° NW 01:19:42 10° NNW
Cosmos 1833 Rocket 3.7 01:21:45 36° ENE 01:21:45 36° ENE 01:25:48 10° NE
Cosmos 1867 4.1 01:25:38 57° NE 01:25:38 57° NE 01:29:57 10° NNE
Cosmos 883 Rocket 4.5 01:24:57 10° N 01:31:16 76° ENE 01:31:16 76° ENE
CZ-2C R/B 3.6 01:36:26 58° ENE 01:36:26 58° ENE 01:41:45 10° N
USA 215 4.0 01:32:55 10° ENE 01:37:56 37° ESE 01:37:56 37° ESE
Cosmos 1503 Rocket 4.4 01:42:11 61° NNE 01:42:11 61° NNE 01:46:34 10° NNE
Lacrosse 5 4.0 01:38:20 10° NNW 01:42:22 23° NNE 01:46:23 10° E
BREEZE-M TANK 3.5 01:29:32 10° WSW 01:45:34 88° NNW 01:49:19 10° ENE
Cosmos 1656 4.0 01:44:19 10° NNW 01:49:59 60° ENE 01:50:03 60° ENE
Cosmos 841 Rocket 3.9 01:48:22 10° NNW 01:52:34 58° NNW 01:52:34 58° NNW
Meteor 2-20 Rocket 4.5 01:54:55 69° WNW 01:54:55 69° WNW 02:00:55 10° N
Cosmos 1151 Rocket 4.4 01:51:45 10° N 01:54:18 36° N 01:54:18 36° N
Cosmos 724 4.3 01:57:13 77° N 01:57:13 77° N 02:02:43 10° NNE
Cosmos 2315 Rocket 3.9 01:51:37 10° N 01:57:59 86° E 01:58:05 86° ESE
CZ-2C R/B 3.2 01:52:48 10° N 01:57:48 51° WNW 01:57:48 51° WNW
Cosmos 2151 4.3 02:02:07 39° NNE 02:02:07 39° NNE 02:04:49 10° N
Meteor 2-2 Rocket 4.4 01:55:19 10° NNW 02:00:26 67° NW 02:00:26 67° NW
CENTAUR R/B 2.4 02:11:44 71° ESE 02:11:46 71° ESE 02:18:27 10° NE
CZ-4C R/B 3.8 02:10:19 21° WNW 02:12:06 25° NW 02:17:00 10° NNE
Sich 1 4.3 02:15:33 36° ENE 02:15:33 36° ENE 02:18:53 10° NNE
PSLV R/B 4.2 02:20:46 10° NNE 02:24:32 57° NE 02:24:32 57° NE
IRAS Rocket 4.3 02:21:36 10° NNE 02:27:03 63° ESE 02:27:12 63° ESE
ASTEX 1 3.8 02:25:38 10° N 02:29:54 56° NW 02:29:54 56° NW
Cosmos 1300 4.1 02:31:55 10° N 02:34:21 37° N 02:34:21 37° N
ERS-2 3.7 02:32:29 10° NNE 02:34:52 34° NE 02:34:52 34° NE
Cosmos 1980 Rocket 2.3 02:31:30 10° NNW 02:37:08 69° ENE 02:38:18 54° ESE
ARIANE 5 R/B 4.4 02:45:19 10° NE 02:49:03 20° E 02:50:59 17° ESE
NPP 3.6 02:45:30 10° NNE 02:50:53 70° ESE 02:51:32 63° SSE
Cosmos 2082 Rocket 3.6 02:52:29 24° WNW 02:53:33 25° WNW 02:58:12 10° N
Meteor 1-4 Rocket 4.1 02:54:02 10° NNE 02:57:28 32° ENE 02:57:47 31° E
Cosmos 1697 Rocket 3.1 02:52:34 10° NW 02:57:19 45° W 02:57:19 45° W
Cosmos 332 Rocket 3.6 02:53:14 10° NNW 02:57:58 86° NW 02:57:58 86° NW
Cosmos 2242 Rocket 3.6 02:54:53 10° N 02:58:53 73° NNW 02:58:53 73° NNW
OAO 3 Rocket 4.1 03:01:42 36° ESE 03:01:42 36° ESE 03:04:45 10° E
SL-08 R/B 3.4 03:00:52 63° SE 03:01:34 75° ENE 03:06:28 10° N
Cosmos 1455 3.6 02:59:44 10° NNE 03:03:09 31° ENE 03:03:44 29° E
Cosmos 540 Rocket 3.7 02:58:20 10° NNW 03:02:51 52° W 03:02:51 52° W
Cosmos 1833 Rocket 4.0 03:03:26 25° WNW 03:04:34 26° WNW 03:09:17 10° N
Meteor 2-10 4.3 03:04:31 10° N 03:09:45 67° E 03:11:41 39° SSE
Cosmos 1726 3.5 03:06:51 10° NNW 03:09:01 31° NW 03:09:01 31° NW
Cosmos 1633 Rocket 3.7 03:11:10 44° WNW 03:11:10 44° WNW 03:15:00 10° N
ATLAS 5 CENTAUR R/B 3.0 03:13:48 28° SE 03:14:47 31° ESE 03:19:13 10° NE
Aureole 1 Rocket 4.5 03:11:49 10° NW 03:15:24 33° W 03:15:24 33° W
Cosmos 2360 4.1 03:13:39 10° NNW 03:19:22 77° WSW 03:21:15 44° S
Cosmos 1869 4.2 03:16:46 10° N 03:20:34 45° E 03:21:41 35° ESE
USA 215 3.6 03:15:42 10° NE 03:22:03 56° NW 03:25:17 30° WSW
IRS-1C 4.0 03:18:46 10° NNE 03:24:08 86° WNW 03:25:33 51° SSW
Lacrosse 5 1.7 03:20:42 10° NW 03:25:44 69° SW 03:27:10 45° SSE
Cosmos 1626 2.1 03:28:26 80° ESE 03:28:27 80° E 03:32:13 10° N
Cosmos 1470 Rocket 3.6 03:28:50 60° WSW 03:29:07 61° W 03:33:31 10° N
Cosmos 1703 3.9 03:30:07 42° WNW 03:30:07 42° WNW 03:33:33 10° N
SEDSat Delta rocket 4.2 03:29:09 42° SW 03:30:43 50° S 03:37:08 10° ESE
Cosmos 1933 Rocket 3.6 03:33:32 54° W 03:33:49 55° W 03:38:08 10° N
USA 161 3.6 03:37:14 19° N 03:37:14 19° N 03:38:04 10° N
SL-16 R/B 2.2 03:31:54 10° NNW 03:37:37 80° ENE 03:43:16 10° SSE
Cosmos 968 Rocket 4.1 03:39:08 35° W 03:40:14 39° WNW 03:45:04 10° N
Resurs 1-4 Rocket 2.9 03:36:26 10° NNE 03:41:35 47° E 03:44:55 21° SSE
EO 1 Del DPAF 3.8 03:41:52 26° SE 03:43:53 59° ENE 03:47:45 10° N
SL-16 R/B 3.0 03:38:03 10° SSE 03:44:10 62° ENE 03:50:22 10° N
Cosmos 1346 3.7 03:44:14 50° ESE 03:44:23 50° E 03:47:22 10° NNE
Cosmos 2292 Rocket 2.6 03:44:37 81° N 03:44:37 81° N 03:47:49 10° N
Cosmos 1271 Rocket 2.8 03:41:11 10° NNW 03:44:47 55° W 03:44:47 55° W
Cosmos 1933 4.3 03:42:01 10° N 03:45:53 45° E 03:48:44 17° SSE
Lacrosse 5 rocket 2.1 03:44:44 10° NW 03:49:06 58° NE 03:53:36 10° SE
Cosmos 371 Rocket 3.7 03:45:27 10° NW 03:49:57 39° WSW 03:50:20 39° WSW
Cosmos 2322 Rocket 2.1 03:44:58 10° NNW 03:50:36 73° WSW 03:55:05 16° SSE
Spot 4 Rocket 4.2 03:52:35 10° N 03:57:37 57° WNW 03:59:42 33° SW
Okean 1-7 4.3 03:55:02 10° N 03:59:11 40° ENE 04:03:17 10° SSE
Cosmos 923 Rocket 3.9 03:57:20 10° NNW 04:02:36 74° WSW 04:07:15 13° S
CENTAUR R/B 4.2 03:58:53 13° W 04:03:09 24° NW 04:08:37 10° NNE
Okean O Rocket 3.2 03:59:45 10° NNE 04:03:42 31° E 04:07:38 10° SSE
BREEZE-M DEB (TANK) 3.8 04:03:30 20° WNW 04:05:29 41° NNW 04:13:42 10° NE
Cosmos 1709 Rocket 4.4 04:03:08 28° SW 04:06:03 46° WNW 04:12:03 10° N
Cosmos 304 Rocket 3.9 04:01:29 10° NNW 04:06:20 77° ENE 04:11:09 10° SSE
ISS -1.0 04:04:05 10° NNW 04:06:55 26° NNE 04:09:44 10° E
Cosmos 1862 Rocket 4.4 04:06:42 10° NNW 04:10:39 31° W 04:11:30 29° WSW
Cosmos 1680 Rocket 3.4 04:07:06 10° NNW 04:12:19 79° WSW 04:17:31 10° SSE
Meteor 1-26 Rocket 4.5 04:14:42 10° N 04:20:15 70° E 04:25:44 10° SSE
Cosmos 1980 Rocket 3.9 04:17:35 10° WNW 04:20:01 14° W 04:20:01 14° W
Cosmos 2360 Rocket 2.5 04:16:17 10° NNW 04:21:55 72° ENE 04:27:32 10° SSE
USA 229 DEB 4.1 04:16:35 17° SSW 04:22:03 62° ESE 04:28:54 10° NE
USA 229 4.1 04:16:40 16° SSW 04:22:09 61° ESE 04:29:01 10° NE
SL-08 ROCKET BODY 4.5 04:17:09 13° S 04:22:40 84° E 04:28:48 10° N
GPS 2-05 Rocket1 2.9 04:22:40 35° SW 04:23:44 52° S 04:27:06 10° E
MTI 3.8 04:21:49 20° S 04:23:58 70° WSW 04:27:21 10° NNW
Cosmos 2221 Rocket 3.6 04:19:51 10° NNW 04:24:18 63° W 04:28:01 15° S
In-Cosmos 22 Rocket 4.5 04:19:49 10° S 04:25:02 63° E 04:30:21 10° NNE
CZ-2D R/B 2.1 04:20:12 10° N 04:25:25 68° WNW 04:29:18 18° SSW
ARIANE 5 R/B 3.1 04:23:33 10° N 04:28:20 41° WNW 04:31:19 20° SW
IRS-1D 4.0 04:23:26 10° N 04:28:34 48° WNW 04:32:02 20° SW
CZ-4B R/B 4.0 04:23:32 10° NNE 04:28:51 51° E 04:34:13 10° S
CZ-2C R/B 4.0 04:26:39 10° SSE 04:31:05 68° ENE 04:35:36 10° N
UNK 3.9 04:28:22 13° S 04:32:14 52° W 04:36:43 10° NNW
Cosmos 2219 3.4 04:27:35 14° SSW 04:32:29 75° ESE 04:38:14 10° NNE
Cosmos 1869 Rocket 3.9 04:31:42 21° SW 04:34:21 48° W 04:38:38 10° N
Cosmos 2322 3.7 04:29:16 10° NNW 04:35:01 90° NE 04:40:45 10° SSE
SL-24 DEB 4.3 04:31:26 10° N 04:36:07 80° E 04:40:43 10° S
Cosmos 1455 4.1 04:36:38 10° NW 04:38:33 14° W 04:38:45 13° W
Cosmos 1898 Rocket 3.5 04:36:35 13° SSW 04:41:12 90° NW 04:46:24 10° NNE
OAO 3 Rocket 3.2 04:39:31 14° W 04:43:30 61° S 04:48:10 10° ESE
Centaur D-1AR AC-48 4.4 04:29:02 10° WSW 04:46:34 28° SSW 04:51:41 10° SE
CZ-4B DEB 4.5 04:44:28 10° NNE 04:49:59 71° ESE 04:55:28 10° S
Cosmos 1937 Rocket 3.7 04:45:25 10° SSW 04:50:43 79° ESE 04:56:03 10° NNE
Coronas F rocket 4.2 04:49:39 10° SE 04:51:37 18° E 04:53:35 10° NE
Cosmos 2150 Rocket 4.1 04:48:41 12° SSW 04:53:30 66° WNW 04:58:51 10° NNE
PAYLOAD B 4.2 04:50:18 10° NNE 04:55:50 88° WNW 05:01:22 10° SSW
UNKNOWN OBJECT B 3.7 04:52:37 10° N 04:56:02 32° WNW 04:59:00 13° SW
Cosmos 1892 3.0 04:53:09 10° S 04:57:02 71° E 05:00:54 10° NNE
ATLAS 5 CENTAUR R/B 3.0 04:55:21 12° WSW 04:59:22 32° NW 05:04:03 10° NNE
Cosmos 2341 Rocket 4.2 04:53:12 10° S 04:59:28 78° E 05:05:49 10° N
GENESIS II 4.3 04:57:26 10° NW 05:01:29 59° WSW 05:05:26 10° SSE
ADEOS II 3.9 04:59:25 10° NE 05:04:04 31° E 05:08:41 10° SSE
COSMOS 2428 2.9 04:58:48 10° NNW 05:04:31 78° ENE 05:10:10 10° SSE
CZ-2D R/B 4.1 05:00:51 10° N 05:04:44 38° WNW 05:08:30 10° SW
Cosmos 1733 Rocket 3.0 05:04:02 10° S 05:08:20 80° W 05:12:43 10° N
ATLAS CENTAUR R/B 2.1 05:03:49 10° NNW 05:08:28 64° ENE 05:12:41 10° SE
Sich 1 Rocket 3.9 05:10:10 10° S 05:14:31 70° E 05:18:54 10° NNE
Nadezhda 3 Rocket 4.0 05:11:14 10° NNW 05:17:21 68° W 05:23:26 10° S
Cosmos 2154 Rocket 4.2 05:11:32 10° SSW 05:17:45 60° W 05:24:02 10° N
CZ-4B R/B 3.1 05:14:17 10° N 05:18:14 59° WNW 05:22:24 10° SSW
Cosmos 220 Rocket 4.0 05:16:29 10° SSW 05:20:42 84° WNW 05:25:00 10° NNE
SL-16 R/B 4.0 05:18:57 10° WNW 05:20:54 12° W 05:22:51 10° WSW
Resurs 1-4 Rocket 3.6 05:17:11 10° NNW 05:21:02 21° WNW 05:24:53 10° WSW
Meteor 2-3 Rocket 4.3 05:18:36 10° SW 05:24:00 41° WNW 05:29:28 10° N
Intercosmos 24 Rocket 4.3 05:21:32 10° S 05:25:43 83° W 05:29:17 10° N
SL-8 Rocket 4.3 05:20:28 10° S 05:26:36 75° E 05:32:51 10° N
Cosmos 2237 Rocket 4.0 05:21:26 10° N 05:26:44 38° ENE 05:32:00 10° SE
Cosmos 2237 4.3 05:21:15 10° NNW 05:26:56 66° WSW 05:32:35 10° S
